Location: ????????
(60.5616°N, 46.8254°E)
Time: 19:25:15
(UTC+00:00)

Cosmos 2219 - Pass Details

Date: 18 February 2020
Orbit: 832 x 862 km, 71.1° (Epoch: 30 March)

Event Time Altitude Azimuth Distance (km) Brightness Sun altitude
Rises 15:30:16 0° 306° (NW) 3,424 7.3 -13.0°
Reaches altitude 10° 15:32:56 10° 315° (NW) 2,492 6.3 -13.4°
Maximum altitude 15:38:10 35° 21° (NNE) 1,349 4.1 -14.0°
Enters shadow 15:41:31 20° 75° (ENE) 1,900 4.4 -14.4°
